STARLINK-1813 (46711 NORAD) Tracking and Keplerian Element Data
This shows tracking and keplerian element data for the satellite.
Feedback or suggestion? Click here.
Element | Value |
Catalog | 46711 |
Name | STARLINK-1813 |
Epoch Orbit | 1520 |
Epoch Day | 21.16668981 |
Epoch Year | 2021 |
RAAN | 12.1803 |
Inclination | 53.0587 |
Eccentricity | 0.0001516 |
Argument of Perigee | 56.5834 |
Mean Anonmoly | 154.9892 |
Mean Motion | 15.06299693 |
Decay Rate | 0.00111373 |
L1 | 1 46711U 20073AT 21021.16668981 .00111373 00000-0 73987-2 0 9994 |
L2 | 2 46711 53.0587 12.1803 0001516 56.5834 154.9892 15.06299693 15204 |
Live tracking and technical data element details for STARLINK-1813 (NORAD 46711). STARLINK-1813 can be tracked NOW for your location showing map with azimuth and elevation plus other details from your city location.
Track the satellite on the map from your city or location and see movement details for azimuth, elevation, latitude, longitude, range, height, and movement on the map or in text.
IsCatalogInMostPopularTable: catalog: 46711, numindb: 34
Update: records affected: 1
GetName: 46711 STARLINK-1813
Hit Count: updated at: Fri, 22 Jan 2021 15:32:53 GMT